Bologna, Italy

4:40 AM CEST on September 01, 2016 (GMT +0200)
Borgo Panigale

Weather History for LIPE - August, 2013

Change the Weather History Date:

Wednesday, August 7, 2013

  Actual Average Record
Temperature  
Mean Temperature 88 °F -  
Max Temperature 102 °F 83 °F 102 °F (2013)
Min Temperature 75 °F 63 °F 60 °F (2000)
Cooling Degree Days 24    
Growing Degree Days 38 (Base 50)    
Moisture  
Dew Point 49 °F    
Average Humidity 27    
Maximum Humidity 43    
Minimum Humidity 13    
Precipitation  
Precipitation 0.00 in 0.08 in - ()
Sea Level Pressure  
Sea Level Pressure 29.86 in    
Wind  
Wind Speed 6 mph ()    
Max Wind Speed 15 mph    
Max Gust Speed -    
Visibility 6.2 miles    
Events      
Averages and records for this station are not official NWS values.
T = Trace of Precipitation, MM = Missing Value Source: Averaged Metar Reports

Daily Weather History Graph

Daily Weather History Graph

Search for Another Location

Airport or City:

Trip Planner

Search our weather history database for the weather conditions in past years. The results will help you decide how hot, cold, wet, or windy it might be!

Date:

Astronomy

Aug. 07, 2013 Rise Set
Actual Time 6:08 AM CEST 8:32 PM CEST
Civil Twilight 5:35 AM CEST 9:04 PM CEST
Nautical Twilight 4:54 AM CEST 9:45 PM CEST
Astronomical Twilight 4:09 AM CEST 10:30 PM CEST
Moon 6:44 AM CEST (8/7) 8:25 PM CEST (8/7)
Length of Visible Light 15h 28m
Length of Day
14h 23m
New Moon, 0% of the Moon is Illuminated
Aug 7
New Moon
Aug 14
First Quarter
Aug 21
Full
Aug 28
Last Quarter
Sep 5
New

Hourly Weather History & Observations

Time (CEST) Temp. Heat Index Dew Point Humidity Pressure Visibility Wind Dir Wind Speed Gust Speed Precip Events Conditions
12:20 AM 82.4 °F - 48.2 °F 30% 29.89 in - SSW 8.1 mph - N/A   Clear
12:50 AM 80.6 °F - 48.2 °F 32% 29.86 in - SW 6.9 mph - N/A   Clear
1:20 AM 78.8 °F - 46.4 °F 32% 29.86 in - SW 5.8 mph - N/A   Clear
1:50 AM 80.6 °F - 46.4 °F 30% 29.86 in - SSW 6.9 mph - N/A   Clear
2:20 AM 78.8 °F - 44.6 °F 30% 29.86 in - SW 5.8 mph - N/A   Clear
2:50 AM 77.0 °F - 46.4 °F 34% 29.86 in - SW 3.5 mph - N/A   Clear
3:20 AM 77.0 °F - 44.6 °F 32% 29.86 in - SW 3.5 mph - N/A   Clear
3:50 AM 77.0 °F - 44.6 °F 32% 29.86 in - SW 4.6 mph - N/A   Clear
4:20 AM 75.2 °F - 44.6 °F 34% 29.86 in - SW 6.9 mph - N/A   Clear
5:20 AM 75.2 °F - 42.8 °F 31% 29.86 in - SSW 9.2 mph - N/A   Clear
5:50 AM 75.2 °F - 42.8 °F 31% 29.86 in - SSW 8.1 mph - N/A   Clear
6:50 AM 77.0 °F - 42.8 °F 29% 29.86 in - Variable 1.2 mph - N/A   Clear
7:20 AM 75.2 °F - 46.4 °F 36% 29.89 in - North 3.5 mph - N/A   Clear
7:50 AM 75.2 °F - 46.4 °F 36% 29.89 in - SSW 8.1 mph - N/A   Clear
8:20 AM 77.0 °F - 50.0 °F 39% 29.89 in - WSW 5.8 mph - N/A   Clear
8:50 AM 80.6 °F - 48.2 °F 32% 29.89 in - SW 6.9 mph - N/A   Clear
9:20 AM 82.4 °F - 50.0 °F 32% 29.89 in - Variable 3.5 mph - N/A   Clear
9:50 AM 86.0 °F - 51.8 °F 31% 29.89 in - WSW 3.5 mph - N/A   Clear
10:20 AM 87.8 °F - 51.8 °F 29% 29.89 in - Variable 2.3 mph - N/A   Clear
10:50 AM 89.6 °F 87.3 °F 53.6 °F 29% 29.89 in - North 3.5 mph - N/A   Clear
11:20 AM 91.4 °F 89.4 °F 55.4 °F 29% 29.89 in - Variable 3.5 mph - N/A   Clear
11:50 AM 93.2 °F - 51.8 °F 24% 29.89 in - ENE 8.1 mph - N/A   Clear
12:20 PM 95.0 °F 93.0 °F 55.4 °F 26% 29.89 in - East 6.9 mph - N/A   Clear
12:50 PM 96.8 °F - 51.8 °F 22% 29.86 in - East 5.8 mph - N/A   Clear
1:20 PM 100.4 °F - 46.4 °F 16% 29.86 in - South 8.1 mph - N/A   Clear
1:50 PM 100.4 °F - 46.4 °F 16% 29.86 in - South 4.6 mph - N/A   Clear
2:20 PM 100.4 °F - 46.4 °F 16% 29.86 in 6.2 mi South 4.6 mph - N/A   Partly Cloudy
2:50 PM 102.2 °F - 46.4 °F 15% 29.86 in 6.2 mi Variable 4.6 mph - N/A   Partly Cloudy
3:20 PM 102.2 °F - 42.8 °F 13% 29.83 in 6.2 mi South 8.1 mph - N/A   Partly Cloudy
3:50 PM 100.4 °F - 50.0 °F 18% 29.86 in 6.2 mi NNW 4.6 mph - N/A   Partly Cloudy
4:20 PM 102.2 °F - 46.4 °F 15% 29.86 in 6.2 mi SSW 12.7 mph - N/A   Partly Cloudy
4:50 PM 100.4 °F - 46.4 °F 16% 29.86 in - SSW 15.0 mph - N/A   Clear
5:20 PM 98.6 °F - 46.4 °F 17% 29.86 in - SSW 10.4 mph - N/A   Clear
5:50 PM 96.8 °F - 48.2 °F 19% 29.86 in - SSE 5.8 mph - N/A   Clear
6:20 PM 96.8 °F - 48.2 °F 19% 29.83 in - SSE 6.9 mph - N/A   Clear
6:50 PM 93.2 °F 90.8 °F 53.6 °F 26% 29.83 in - SSE 4.6 mph - N/A   Clear
7:20 PM 95.0 °F - 51.8 °F 23% 29.83 in - South 5.8 mph - N/A   Clear
7:50 PM 91.4 °F 89.9 °F 57.2 °F 31% 29.83 in - SE 4.6 mph - N/A   Clear
8:20 PM 87.8 °F 88.5 °F 62.6 °F 43% 29.83 in - ESE 8.1 mph - N/A   Clear
8:50 PM 87.8 °F 87.6 °F 60.8 °F 40% 29.83 in - SE 6.9 mph - N/A   Clear
9:20 PM 89.6 °F 89.5 °F 60.8 °F 38% 29.86 in - South 5.8 mph - N/A   Clear
9:50 PM 91.4 °F - 51.8 °F 26% 29.86 in - South 10.4 mph - N/A   Clear
10:20 PM 87.8 °F - 51.8 °F 29% 29.86 in - SSE 5.8 mph - N/A   Clear
10:50 PM 89.6 °F - 48.2 °F 24% 29.86 in - South 9.2 mph - N/A   Clear
11:20 PM 89.6 °F - 46.4 °F 22% 29.86 in - South 10.4 mph - N/A   Clear
11:50 PM 87.8 °F - 48.2 °F 25% 29.86 in - South 8.1 mph - N/A   Clear